Terminal Aerodrome Forecast
Issued by NWS Aberdeen, SD

Home | Current Version | Previous Version | Text Only | Print | Product List | Glossary On
Versions: 1 2 3 4 5 6 7 8 9 10 11 12 13 14 15 16 17 18 19 20 21 22 23 24 25 26 27 28 29 30 31 32 33 34 35 36 37 38 39 40 41 42 43 44 45 46 47 48 49 50
000
FTAK31 PAFA 240428 AAA
TAFABR
TAF AMD
PABR 240428Z 2404/2424 27020KT P6SM -SHSN SCT015 BKN025 OVC040
     FM240600 28015KT 3SM -SHSN OVC025
     FM241200 26010KT 4SM -SN BR OVC015
     FM241800 25010KT 2SM -SN BR OVC015=

USA.gov is the U.S. government's official web portal to all federal, state and local government web resources and services.